Погода в Большом Савине

Россия / Пермский край     57°55′28″N   56°00′34″E
темп.,
°C
ветер,
м/с
пор.,
м/с
влажн.,
%
обл.,
%
осадки,
мм/ч
давл.,
гПа
погр.,
м
24 сентября, пт
пт2423:00+5вюв22805 0.0 102719
02:00+3вюв228474 0.0 102649
05:00+3вюв248795 0.0 102563
08:00+4вюв2684100 0.0 1025126
11:00+10юв3659100 0.0 1024371
14:00+13ю3651100 0.0 1024724
17:00+11юв386396 0.0 1023499
20:00+10юв2867100 0.0 1023227
25 сентября, сб
сб2523:00+7юв2674100 0.0 1022123
02:00+9юв2370100 0.0 102283
05:00+8вюв1183100 0.3 102115
08:00+7вюв1186100 0.2 102021
11:00+8в2583100 0.3 1019207
14:00+10в41066100 0.1 1017461
17:00+12вюв4105599 0.1 1016613
20:00+10в2965100 0.0 1016230
26 сентября, вс
вс2623:00+9вюв31162100 0.0 1016355
02:00+9вюв2665100 0.0 1016170
05:00+8вюв41174100 0.3 1016568
08:00+8вюв5147199 0.1 1015623
11:00+11вюв71560100 0.1 1015937
14:00+12вюв71355100 0.0 10161293
17:00+7вюв61385100 0.3 10171299
20:00+7вюв61488100 1.1 10181222
27 сентября, пн
пн2723:00+6вюв71383100 1.2 10181172
02:00+5в61380100 0.0 1020895
05:00+4в51367100 0.0 1020790
08:00+4в51264100 0.0 1022810
11:00+5в51261100 0.0 1023911
14:00+8в6104770 0.0 10241172
17:00+8в510505 0.0 10251299
20:00+5всв411625 0.0 1026659
28 сентября, вт
вт2823:00+2св39755 0.0 1028323
02:00+1св39835 0.0 1028304
05:00−1св2891100 0.0 1029219
08:000св2884100 0.0 1030303
11:00+4всв3563100 0.0 1030707
14:00+6св3453100 0.0 10291312
17:00+7ссв3456100 0.0 10281226
20:00+2с22815 0.0 102918